Flag for Russia Weather past 2 weeks in Syktyvkar, Russia

Now
32 °F

Snow flurries. Overcast.


Feels Like: 29 °F
Forecast: 19 / 27 °F
Wind: 3 mph from Southwest

Location: Syktyvkar Airport

Current Time: Dec 22, 2014 at 9:52:51 AM

Latest Report: Dec 22, 2014 at 9:00 AM


Visibility: 3 mi

Pressure: 29.36 "Hg

Humidity: 87%

Dew point: 28 °F

Location of SyktyvkarLocation

Historic Weather in Syktyvkar — Graph

°F

Syktyvkar temperature yesterday

Maximum temperature yesterday: 32 °F (at 11:30 AM)
Minimum temperature yesterday: 27 °F (at 2:00 AM)
Average temperature yesterday: 30 °F

Past Weeks' High & Low Weather Summary

 TemperatureHumidityPressure
High34 °F (Dec 14, 9:30 AM)100% (Dec 14, 9:00 AM)30.30 "Hg (Dec 14, 9:00 AM)
Low19 °F (Dec 15, 5:30 PM)74% (Dec 11, 1:00 PM)29.18 "Hg (Dec 21, 2:00 AM)
Average28 °F89%29.83 "Hg
* Reported Dec 7 8:00 AM — Dec 22 8:00 AM, Syktyvkar, Weather by CustomWeather, © 2014

Note: Actual official high and low records may vary slightly from our data, if they occured in-between our weather recording intervals... More about our weather records

Advertising

Syktyvkar weather history for previous 24 hours

 ConditionsComfort  
Time TempWeatherWind HumidityBarometerVisibility
8:00 AM
Dec 22
32 °FOvercast.8 mph87%29.36 "Hg4 mi
7:30 AM32 °FOvercast.8 mph87%29.33 "Hg4 mi
7:00 AM32 °FOvercast.6 mph87%29.33 "Hg5 mi
6:00 AM32 °FOvercast.8 mph93%29.33 "Hg5 mi
5:30 AM32 °FOvercast.6 mph87%29.33 "Hg6 mi
5:00 AM32 °FSnow flurries. Overcast.6 mph93%29.33 "Hg4 mi
4:30 AM32 °FOvercast.6 mph93%29.33 "Hg5 mi
4:00 AM32 °FOvercast.8 mph93%29.33 "Hg5 mi
3:00 AM32 °FOvercast.6 mph93%29.33 "Hg4 mi
2:30 AM32 °FSnow flurries. Overcast.6 mph93%29.33 "Hg4 mi
2:00 AM32 °FSnow flurries. Overcast.6 mph93%29.33 "Hg5 mi
1:30 AM32 °FSnow flurries. Overcast.6 mph93%29.33 "Hg4 mi
1:00 AM32 °FSnow flurries. Overcast.8 mph93%29.33 "Hg2 mi
12:00 AM32 °FSnow flurries. Mostly cloudy.6 mph87%29.33 "Hg4 mi
11:30 PM
Dec 21
32 °FMostly cloudy.6 mph93%29.33 "Hg5 mi
11:00 PM32 °FMostly cloudy.6 mph93%29.30 "Hg5 mi
10:30 PM30 °FSnow flurries. Mostly cloudy.6 mph93%29.30 "Hg5 mi
10:00 PM32 °FSnow flurries. Overcast.8 mph93%29.30 "Hg2 mi
9:30 PM32 °FSnow flurries. Overcast.6 mph93%29.30 "Hg2 mi
9:00 PM32 °FSnow flurries. Overcast.6 mph93%29.30 "Hg4 mi
8:30 PM30 °FSnow flurries. Overcast.6 mph93%29.30 "Hg3 mi
8:00 PM30 °FSnow flurries. Overcast.6 mph93%29.30 "Hg4 mi
7:30 PM30 °FSnow flurries. Overcast.6 mph93%29.30 "Hg4 mi
7:00 PM30 °FSnow flurries. Overcast.3 mph93%29.30 "Hg4 mi
6:30 PM30 °FOvercast.3 mph93%29.30 "Hg5 mi
6:00 PM30 °FOvercast.3 mph93%29.30 "Hg6 mi
5:30 PM32 °FOvercast.3 mph93%29.30 "Hg5 mi
5:00 PM32 °FOvercast.3 mph93%29.30 "Hg5 mi
4:30 PM32 °FOvercast.3 mph93%29.30 "Hg5 mi
4:00 PM32 °FOvercast.3 mph93%29.30 "Hg4 mi
3:30 PM32 °FOvercast.3 mph93%29.30 "Hg4 mi
3:00 PM32 °FSnow flurries. Cloudy.3 mph93%29.27 "Hg4 mi
2:30 PM32 °FSnow flurries. Cloudy.3 mph93%29.27 "Hg4 mi
2:00 PM32 °FSnow flurries. Cloudy.6 mph93%29.27 "Hg4 mi
1:30 PM32 °FSnow flurries. Cloudy.6 mph93%29.27 "Hg5 mi
1:00 PM32 °FSnow flurries. Cloudy.6 mph93%29.27 "Hg6 mi
12:30 PM32 °FCloudy.6 mph93%29.27 "Hg5 mi
12:00 PM32 °FCloudy.3 mph93%29.27 "Hg6 mi
11:30 AM32 °FCloudy.6 mph93%29.24 "Hg5 mi
11:00 AM30 °FCloudy.6 mph100%29.27 "Hg5 mi
10:30 AM30 °FCloudy.6 mph93%29.24 "Hg5 mi
10:00 AM30 °FMostly cloudy.6 mph93%29.24 "Hg6 mi
9:30 AM30 °FMostly cloudy.3 mph100%29.24 "Hg6 mi
9:00 AM30 °FOvercast.6 mph100%29.24 "Hg6 mi
Weather by CustomWeather, © 2014

See weather overviewHow to use our weather pages